Time,TemperatureF,DewpointF,PressureIn,WindDirection,WindDirectionDegrees,WindSpeedMPH,WindSpeedGustMPH,Humidity,HourlyPrecipIn,Conditions,Clouds,dailyrainin,SoftwareType,DateUTC
2013-01-25 00:01:00,12.2,2.4,30.49,ESE,112,0.0,0.0,64,0.00,RMK 61.3/26.0,,0.00,WUHU21623XXSP,2013-01-25 05:01:00,
2013-01-25 00:03:00,12.2,2.4,30.49,ESE,112,0.0,0.0,64,0.00,RMK 61.3/26.0,,0.00,WUHU21623XXSP,2013-01-25 05:03:00,
2013-01-25 00:08:00,12.2,2.7,30.49,ESE,112,0.0,0.0,65,0.00,RMK 61.2/26.0,,0.00,WUHU21623XXSP,2013-01-25 05:08:00,
2013-01-25 00:13:00,12.2,2.7,30.48,ESE,112,0.0,0.0,65,0.00,RMK 61.2/26.0,,0.00,WUHU21623XXSP,2013-01-25 05:13:00,
2013-01-25 00:18:00,12.4,2.9,30.48,ESE,112,0.0,0.0,65,0.00,RMK 61.2/27.0,,0.00,WUHU21623XXSP,2013-01-25 05:18:00,
2013-01-25 00:23:00,12.4,2.9,30.48,ESE,112,0.0,0.0,65,0.00,RMK 61.2/27.0,,0.00,WUHU21623XXSP,2013-01-25 05:23:00,
2013-01-25 00:28:00,12.4,2.9,30.48,ESE,112,0.0,0.0,65,0.00,RMK 61.2/27.0,,0.00,WUHU21623XXSP,2013-01-25 05:28:00,
2013-01-25 00:33:00,12.4,2.9,30.48,ESE,112,0.0,0.0,65,0.00,RMK 61.2/26.0,,0.00,WUHU21623XXSP,2013-01-25 05:33:00,
2013-01-25 00:38:00,12.6,3.1,30.47,ESE,112,0.0,0.0,65,0.00,RMK 61.2/26.0,,0.00,WUHU21623XXSP,2013-01-25 05:38:00,
2013-01-25 00:43:00,12.6,3.4,30.48,ESE,112,0.0,0.0,66,0.00,RMK 61.2/26.0,,0.00,WUHU21623XXSP,2013-01-25 05:43:00,
2013-01-25 00:48:00,12.6,3.4,30.47,ESE,112,0.0,0.0,66,0.00,RMK 61.2/26.0,,0.00,WUHU21623XXSP,2013-01-25 05:48:00,
2013-01-25 00:53:00,12.6,3.4,30.47,ESE,112,0.0,0.0,66,0.00,RMK 61.2/26.0,,0.00,WUHU21623XXSP,2013-01-25 05:53:00,
2013-01-25 00:58:00,12.6,3.4,30.47,ESE,112,0.0,0.0,66,0.00,RMK 61.2/26.0,,0.00,WUHU21623XXSP,2013-01-25 05:58:00,
2013-01-25 01:03:00,12.6,3.4,30.46,ESE,112,0.0,0.0,66,0.00,RMK 61.2/26.0,,0.00,WUHU21623XXSP,2013-01-25 06:03:00,
2013-01-25 01:08:00,12.8,3.6,30.45,SE,135,0.0,0.0,66,0.00,RMK 61.2/26.0,,0.00,WUHU21623XXSP,2013-01-25 06:08:00,
2013-01-25 01:13:00,12.8,3.6,30.45,SE,135,0.0,0.0,66,0.00,RMK 61.2/26.0,,0.00,WUHU21623XXSP,2013-01-25 06:13:00,
2013-01-25 01:18:00,12.8,4.0,30.45,SE,135,0.0,0.0,67,0.00,RMK 61.0/26.0,,0.00,WUHU21623XXSP,2013-01-25 06:18:00,
2013-01-25 01:23:00,12.8,4.0,30.45,SE,135,0.0,0.0,67,0.00,RMK 61.0/26.0,,0.00,WUHU21623XXSP,2013-01-25 06:23:00,
2013-01-25 01:28:00,12.8,4.0,30.45,SE,135,0.0,0.0,67,0.00,RMK 61.0/26.0,,0.00,WUHU21623XXSP,2013-01-25 06:28:00,
2013-01-25 01:33:00,12.8,4.0,30.45,SE,135,0.0,0.0,67,0.00,RMK 60.8/25.0,,0.00,WUHU21623XXSP,2013-01-25 06:33:00,
2013-01-25 01:38:00,13.1,4.6,30.45,SE,135,0.0,0.0,68,0.00,RMK 60.8/25.0,,0.00,WUHU21623XXSP,2013-01-25 06:38:00,
2013-01-25 01:43:00,13.1,4.6,30.46,SE,135,0.0,0.0,68,0.00,RMK 60.8/25.0,,0.00,WUHU21623XXSP,2013-01-25 06:43:00,
2013-01-25 01:48:00,13.1,4.6,30.45,SE,135,0.0,0.0,68,0.00,RMK 60.8/26.0,,0.00,WUHU21623XXSP,2013-01-25 06:48:00,
2013-01-25 01:53:00,13.3,4.8,30.45,SE,135,0.0,0.0,68,0.00,RMK 60.8/26.0,,0.00,WUHU21623XXSP,2013-01-25 06:53:00,
2013-01-25 01:58:00,13.3,4.8,30.44,SE,135,0.0,0.0,68,0.00,RMK 60.8/26.0,,0.00,WUHU21623XXSP,2013-01-25 06:58:00,
2013-01-25 02:04:00,13.3,4.8,30.44,SE,135,0.0,0.0,68,0.00,RMK 60.8/26.0,,0.00,WUHU21623XXSP,2013-01-25 07:04:00,
2013-01-25 02:09:00,13.3,4.8,30.44,SE,135,0.0,0.0,68,0.00,RMK 60.8/26.0,,0.00,WUHU21623XXSP,2013-01-25 07:09:00,
2013-01-25 02:14:00,13.3,5.1,30.44,SE,135,0.0,0.0,69,0.00,RMK 60.8/26.0,,0.00,WUHU21623XXSP,2013-01-25 07:14:00,
2013-01-25 02:19:00,13.3,5.1,30.44,SE,135,0.0,0.0,69,0.00,RMK 60.8/26.0,,0.00,WUHU21623XXSP,2013-01-25 07:19:00,
2013-01-25 02:24:00,13.3,5.1,30.43,SE,135,0.0,0.0,69,0.00,RMK 60.8/26.0,,0.00,WUHU21623XXSP,2013-01-25 07:24:00,
2013-01-25 02:29:00,13.3,5.1,30.43,SE,135,0.0,0.0,69,0.00,RMK 60.8/26.0,,0.00,WUHU21623XXSP,2013-01-25 07:29:00,
2013-01-25 02:34:00,13.3,5.1,30.43,SE,135,0.0,0.0,69,0.00,RMK 60.8/26.0,,0.00,WUHU21623XXSP,2013-01-25 07:34:00,
2013-01-25 02:39:00,13.3,5.4,30.43,SE,135,0.0,0.0,70,0.00,RMK 60.8/26.0,,0.00,WUHU21623XXSP,2013-01-25 07:39:00,
2013-01-25 02:44:00,13.3,5.4,30.43,SE,135,0.0,0.0,70,0.00,RMK 60.8/26.0,,0.00,WUHU21623XXSP,2013-01-25 07:44:00,
2013-01-25 02:49:00,13.3,5.4,30.42,SE,135,0.0,0.0,70,0.00,RMK 60.8/26.0,,0.00,WUHU21623XXSP,2013-01-25 07:49:00,
2013-01-25 02:54:00,13.5,5.6,30.42,SE,135,0.0,0.0,70,0.00,RMK 60.8/25.0,,0.00,WUHU21623XXSP,2013-01-25 07:54:00,
2013-01-25 02:59:00,13.7,5.8,30.41,SE,135,0.0,0.0,70,0.00,RMK 60.8/25.0,,0.00,WUHU21623XXSP,2013-01-25 07:59:00,
2013-01-25 03:04:00,13.7,5.8,30.41,SE,135,0.0,0.0,70,0.00,RMK 60.8/25.0,,0.00,WUHU21623XXSP,2013-01-25 08:04:00,
2013-01-25 03:09:00,13.7,5.8,30.41,South,180,0.0,0.0,70,0.00,RMK 60.8/25.0,,0.00,WUHU21623XXSP,2013-01-25 08:09:00,
2013-01-25 03:14:00,13.7,5.8,30.40,South,180,0.0,0.0,70,0.00,RMK 60.8/25.0,,0.00,WUHU21623XXSP,2013-01-25 08:14:00,
2013-01-25 03:19:00,13.7,5.8,30.40,SSE,157,0.0,0.0,70,0.00,RMK 60.8/25.0,,0.00,WUHU21623XXSP,2013-01-25 08:19:00,
2013-01-25 03:26:00,13.7,6.1,30.39,SSE,157,0.0,0.0,71,0.00,RMK 60.8/25.0,,0.00,WUHU21623XXSP,2013-01-25 08:26:00,
2013-01-25 03:31:00,13.9,6.3,30.39,SSE,157,0.0,0.0,71,0.00,RMK 60.6/25.0,,0.00,WUHU21623XXSP,2013-01-25 08:31:00,
2013-01-25 03:36:00,13.9,6.3,30.39,SE,135,0.0,0.0,71,0.00,RMK 60.6/25.0,,0.00,WUHU21623XXSP,2013-01-25 08:36:00,
2013-01-25 03:41:00,13.9,6.3,30.39,SE,135,0.0,0.0,71,0.00,RMK 60.6/25.0,,0.00,WUHU21623XXSP,2013-01-25 08:41:00,
2013-01-25 03:46:00,13.9,6.3,30.38,SE,135,0.0,0.0,71,0.00,RMK 60.6/25.0,,0.00,WUHU21623XXSP,2013-01-25 08:46:00,
2013-01-25 03:51:00,13.9,6.3,30.38,SSE,157,0.0,0.0,71,0.00,RMK 60.6/25.0,,0.00,WUHU21623XXSP,2013-01-25 08:51:00,
2013-01-25 03:56:00,14.0,6.4,30.38,South,180,0.0,0.0,71,0.00,RMK 60.6/25.0,,0.00,WUHU21623XXSP,2013-01-25 08:56:00,
2013-01-25 04:01:00,14.0,6.4,30.38,South,180,0.0,0.0,71,0.00,RMK 60.6/25.0,,0.00,WUHU21623XXSP,2013-01-25 09:01:00,
2013-01-25 04:06:00,14.0,6.4,30.38,South,180,0.0,0.0,71,0.00,RMK 60.6/25.0,,0.00,WUHU21623XXSP,2013-01-25 09:06:00,
2013-01-25 04:11:00,14.2,6.6,30.37,South,180,0.0,0.0,71,0.00,RMK 60.6/25.0,,0.00,WUHU21623XXSP,2013-01-25 09:11:00,
2013-01-25 04:16:00,14.2,6.6,30.37,SSE,157,0.0,0.0,71,0.00,RMK 60.6/25.0,,0.00,WUHU21623XXSP,2013-01-25 09:16:00,
2013-01-25 04:21:00,14.2,6.3,30.37,ESE,112,0.0,0.0,70,0.00,RMK 60.6/25.0,,0.00,WUHU21623XXSP,2013-01-25 09:21:00,
2013-01-25 04:26:00,14.2,6.6,30.36,SSE,157,0.0,0.0,71,0.00,RMK 60.6/25.0,,0.00,WUHU21623XXSP,2013-01-25 09:26:00,
2013-01-25 04:31:00,14.2,6.6,30.36,SSE,157,0.0,0.0,71,0.00,RMK 60.6/25.0,,0.00,WUHU21623XXSP,2013-01-25 09:31:00,
2013-01-25 04:36:00,14.2,6.6,30.36,SSE,157,0.0,0.0,71,0.00,RMK 60.6/25.0,,0.00,WUHU21623XXSP,2013-01-25 09:36:00,
2013-01-25 04:41:00,14.2,6.6,30.35,SSE,157,0.0,0.0,71,0.00,RMK 60.6/25.0,,0.00,WUHU21623XXSP,2013-01-25 09:41:00,
2013-01-25 04:46:00,14.2,6.6,30.35,SSE,157,0.0,0.0,71,0.00,RMK 60.8/25.0,,0.00,WUHU21623XXSP,2013-01-25 09:46:00,
2013-01-25 04:51:00,14.2,6.6,30.35,SSE,157,0.0,0.0,71,0.00,RMK 60.8/26.0,,0.00,WUHU21623XXSP,2013-01-25 09:51:00,
2013-01-25 04:56:00,14.4,6.8,30.35,SSE,157,0.0,0.0,71,0.00,RMK 60.8/26.0,,0.00,WUHU21623XXSP,2013-01-25 09:56:00,
2013-01-25 05:01:00,14.4,6.8,30.34,SSE,157,0.0,0.0,71,0.00,RMK 61.0/26.0,,0.00,WUHU21623XXSP,2013-01-25 10:01:00,
2013-01-25 05:06:00,14.4,6.8,30.34,SE,135,0.0,0.0,71,0.00,RMK 61.2/26.0,,0.00,WUHU21623XXSP,2013-01-25 10:06:00,
2013-01-25 05:11:00,14.6,6.9,30.33,SE,135,0.0,0.0,71,0.00,RMK 61.3/26.0,,0.00,WUHU21623XXSP,2013-01-25 10:11:00,
2013-01-25 05:16:00,14.6,6.9,30.33,SE,135,0.0,0.0,71,0.00,RMK 61.3/26.0,,0.00,WUHU21623XXSP,2013-01-25 10:16:00,
2013-01-25 05:21:00,14.6,6.9,30.32,SSE,157,0.0,0.0,71,0.00,RMK 61.5/26.0,,0.00,WUHU21623XXSP,2013-01-25 10:21:00,
2013-01-25 05:26:00,14.6,6.9,30.32,SE,135,0.0,0.0,71,0.00,RMK 61.5/26.0,,0.00,WUHU21623XXSP,2013-01-25 10:26:00,
2013-01-25 05:31:00,14.6,6.9,30.31,SSE,157,0.0,0.0,71,0.00,RMK 61.7/26.0,,0.00,WUHU21623XXSP,2013-01-25 10:31:00,
2013-01-25 05:36:00,14.4,7.1,30.31,SSE,157,0.0,0.0,72,0.00,RMK 61.9/26.0,,0.00,WUHU21623XXSP,2013-01-25 10:36:00,
2013-01-25 05:41:00,14.6,6.9,30.31,SE,135,0.0,5.4,71,0.00,RMK 61.9/26.0,,0.00,WUHU21623XXSP,2013-01-25 10:41:00,
2013-01-25 05:46:00,14.6,6.9,30.30,SSW,202,0.0,5.4,71,0.00,RMK 62.1/26.0,,0.00,WUHU21623XXSP,2013-01-25 10:46:00,
2013-01-25 05:51:00,14.6,7.3,30.30,SSW,202,0.0,0.0,72,0.00,RMK 62.2/26.0,,0.00,WUHU21623XXSP,2013-01-25 10:51:00,
2013-01-25 05:56:00,14.6,7.3,30.29,SE,135,0.0,0.0,72,0.00,RMK 62.2/26.0,,0.00,WUHU21623XXSP,2013-01-25 10:56:00,
2013-01-25 06:01:00,14.6,7.3,30.28,SE,135,0.0,0.0,72,0.00,RMK 62.2/26.0,,0.00,WUHU21623XXSP,2013-01-25 11:01:00,
2013-01-25 06:06:00,14.6,7.3,30.28,SE,135,0.0,0.0,72,0.00,RMK 62.4/26.0,,0.00,WUHU21623XXSP,2013-01-25 11:06:00,
2013-01-25 06:11:00,14.8,7.4,30.28,SE,135,0.0,0.0,72,0.00,RMK 62.6/26.0,,0.00,WUHU21623XXSP,2013-01-25 11:11:00,
2013-01-25 06:16:00,14.9,7.5,30.28,SE,135,0.0,0.0,72,0.00,RMK 62.6/26.0,,0.00,WUHU21623XXSP,2013-01-25 11:16:00,
2013-01-25 06:21:00,14.9,7.5,30.28,SE,135,0.0,0.0,72,0.00,RMK 62.8/26.0,,0.00,WUHU21623XXSP,2013-01-25 11:21:00,
2013-01-25 06:27:00,15.1,7.7,30.28,South,180,0.0,0.0,72,0.00,RMK 62.8/26.0,,0.00,WUHU21623XXSP,2013-01-25 11:27:00,
2013-01-25 06:32:00,15.1,7.7,30.28,South,180,0.0,0.0,72,0.00,RMK 63.0/26.0,,0.00,WUHU21623XXSP,2013-01-25 11:32:00,
2013-01-25 06:37:00,15.1,7.7,30.27,SSE,157,0.0,0.0,72,0.00,RMK 63.0/26.0,,0.00,WUHU21623XXSP,2013-01-25 11:37:00,
2013-01-25 06:42:00,15.1,7.7,30.27,SSW,202,0.0,0.0,72,0.00,RMK 62.8/26.0,,0.00,WUHU21623XXSP,2013-01-25 11:42:00,
2013-01-25 06:47:00,15.1,7.7,30.27,SSW,202,0.0,0.0,72,0.00,RMK 62.8/26.0,,0.00,WUHU21623XXSP,2013-01-25 11:47:00,
2013-01-25 06:52:00,15.1,7.7,30.26,South,180,0.0,0.0,72,0.00,RMK 62.8/26.0,,0.00,WUHU21623XXSP,2013-01-25 11:52:00,
2013-01-25 06:56:00,15.1,8.0,30.26,South,180,0.0,0.0,73,0.00,RMK 62.6/26.0,,0.00,WUHU21623XXSP,2013-01-25 11:56:00,
2013-01-25 07:01:00,15.1,8.0,30.26,South,180,0.0,0.0,73,0.00,RMK 62.4/25.0,,0.00,WUHU21623XXSP,2013-01-25 12:01:00,
2013-01-25 07:07:00,15.1,8.0,30.26,SSW,202,1.8,1.8,73,0.00,RMK 62.2/25.0,,0.00,WUHU21623XXSP,2013-01-25 12:07:00,
2013-01-25 07:11:00,14.9,8.1,30.25,South,180,0.0,1.8,74,0.00,RMK 62.2/26.0,,0.00,WUHU21623XXSP,2013-01-25 12:11:00,
2013-01-25 07:16:00,14.9,8.1,30.25,South,180,0.0,0.0,74,0.00,RMK 62.2/26.0,,0.00,WUHU21623XXSP,2013-01-25 12:16:00,
2013-01-25 07:21:00,14.8,8.0,30.25,SSE,157,0.0,0.0,74,0.00,RMK 62.1/26.0,,0.00,WUHU21623XXSP,2013-01-25 12:21:00,
2013-01-25 07:26:00,14.8,8.3,30.25,South,180,0.0,0.0,75,0.00,RMK 62.1/26.0,,0.00,WUHU21623XXSP,2013-01-25 12:26:00,
2013-01-25 07:31:00,14.8,8.3,30.25,South,180,0.0,0.0,75,0.00,RMK 62.1/26.0,,0.00,WUHU21623XXSP,2013-01-25 12:31:00,
2013-01-25 07:37:00,14.8,8.3,30.25,SSW,202,0.0,0.0,75,0.00,RMK 61.9/26.0,,0.00,WUHU21623XXSP,2013-01-25 12:37:00,
2013-01-25 07:42:00,14.6,8.4,30.24,South,180,0.0,0.0,76,0.00,RMK 61.9/26.0,,0.00,WUHU21623XXSP,2013-01-25 12:42:00,
2013-01-25 07:46:00,14.4,8.2,30.24,South,180,0.0,0.0,76,0.00,RMK 61.9/26.0,,0.00,WUHU21623XXSP,2013-01-25 12:46:00,
2013-01-25 07:51:00,14.6,8.4,30.24,South,180,0.0,0.0,76,0.00,RMK 61.9/26.0,,0.00,WUHU21623XXSP,2013-01-25 12:51:00,
2013-01-25 07:56:00,14.4,8.5,30.24,South,180,0.0,0.0,77,0.00,RMK 61.9/26.0,,0.00,WUHU21623XXSP,2013-01-25 12:56:00,
2013-01-25 08:01:00,14.4,8.5,30.23,SE,135,0.0,0.0,77,0.00,RMK 62.1/27.0,,0.00,WUHU21623XXSP,2013-01-25 13:01:00,
2013-01-25 08:06:00,14.6,9.0,30.23,SE,135,0.0,0.0,78,0.00,RMK 62.8/26.0,,0.00,WUHU21623XXSP,2013-01-25 13:06:00,
2013-01-25 08:11:00,14.4,8.8,30.22,SE,135,0.0,0.0,78,0.00,RMK 63.1/26.0,,0.00,WUHU21623XXSP,2013-01-25 13:11:00,
2013-01-25 08:16:00,14.4,9.1,30.22,SE,135,0.0,0.0,79,0.00,RMK 63.7/26.0,,0.00,WUHU21623XXSP,2013-01-25 13:16:00,
2013-01-25 08:21:00,14.4,9.1,30.21,SE,135,0.0,0.0,79,0.00,RMK 64.2/26.0,,0.00,WUHU21623XXSP,2013-01-25 13:21:00,
2013-01-25 08:27:00,14.6,9.3,30.21,SE,135,0.0,0.0,79,0.00,RMK 64.4/26.0,,0.00,WUHU21623XXSP,2013-01-25 13:27:00,
2013-01-25 08:32:00,14.6,9.3,30.21,SE,135,0.0,0.0,79,0.00,RMK 64.6/25.0,,0.00,WUHU21623XXSP,2013-01-25 13:32:00,
2013-01-25 08:37:00,14.6,9.6,30.21,SE,135,0.0,0.0,80,0.00,RMK 64.6/25.0,,0.00,WUHU21623XXSP,2013-01-25 13:37:00,
2013-01-25 08:42:00,14.6,9.6,30.21,SE,135,0.0,0.0,80,0.00,RMK 64.8/25.0,,0.00,WUHU21623XXSP,2013-01-25 13:42:00,
2013-01-25 08:47:00,14.6,9.6,30.21,SE,135,0.0,0.0,80,0.00,RMK 64.6/25.0,,0.00,WUHU21623XXSP,2013-01-25 13:47:00,
2013-01-25 08:52:00,14.4,9.4,30.20,SE,135,0.0,0.0,80,0.00,RMK 64.4/25.0,,0.00,WUHU21623XXSP,2013-01-25 13:52:00,
2013-01-25 08:57:00,14.4,9.4,30.20,SE,135,0.0,0.0,80,0.00,RMK 64.2/25.0,,0.00,WUHU21623XXSP,2013-01-25 13:57:00,
2013-01-25 09:02:00,14.6,9.8,30.20,SE,135,0.0,0.0,81,0.00,RMK 64.0/26.0,,0.00,WUHU21623XXSP,2013-01-25 14:02:00,
2013-01-25 09:07:00,14.6,9.8,30.20,SE,135,0.0,0.0,81,0.00,RMK 63.9/26.0,,0.00,WUHU21623XXSP,2013-01-25 14:07:00,
2013-01-25 09:12:00,14.6,9.8,30.20,SE,135,0.0,0.0,81,0.00,RMK 63.7/26.0,,0.00,WUHU21623XXSP,2013-01-25 14:12:00,
2013-01-25 09:17:00,14.8,10.0,30.19,SE,135,0.0,0.0,81,0.00,RMK 63.7/26.0,,0.00,WUHU21623XXSP,2013-01-25 14:17:00,
2013-01-25 09:22:00,14.9,10.1,30.19,SE,135,0.0,0.0,81,0.00,RMK 63.5/26.0,,0.00,WUHU21623XXSP,2013-01-25 14:22:00,
2013-01-25 09:27:00,14.9,10.1,30.19,SE,135,0.0,0.0,81,0.00,RMK 63.3/26.0,,0.00,WUHU21623XXSP,2013-01-25 14:27:00,
2013-01-25 09:32:00,14.9,10.1,30.19,ESE,112,0.0,0.0,81,0.00,RMK 63.3/27.0,,0.00,WUHU21623XXSP,2013-01-25 14:32:00,
2013-01-25 09:37:00,15.1,10.3,30.19,ESE,112,0.0,0.0,81,0.00,RMK 63.1/27.0,,0.00,WUHU21623XXSP,2013-01-25 14:37:00,
2013-01-25 09:42:00,15.1,10.6,30.19,SE,135,0.0,0.0,82,0.00,RMK 63.1/27.0,,0.00,WUHU21623XXSP,2013-01-25 14:42:00,
2013-01-25 09:47:00,15.1,10.6,30.19,SE,135,0.0,0.0,82,0.00,RMK 63.0/27.0,,0.00,WUHU21623XXSP,2013-01-25 14:47:00,
2013-01-25 09:52:00,15.1,10.6,30.19,SE,135,0.0,0.0,82,0.00,RMK 63.0/26.0,,0.00,WUHU21623XXSP,2013-01-25 14:52:00,
2013-01-25 09:57:00,15.5,11.0,30.19,SE,135,0.0,0.0,82,0.00,RMK 63.0/26.0,,0.00,WUHU21623XXSP,2013-01-25 14:57:00,
2013-01-25 10:02:00,15.5,11.0,30.19,SSE,157,0.0,0.0,82,0.00,RMK 62.8/26.0,,0.00,WUHU21623XXSP,2013-01-25 15:02:00,
2013-01-25 10:08:00,15.7,11.2,30.18,SSE,157,0.0,0.0,82,0.00,RMK 62.6/26.0,,0.00,WUHU21623XXSP,2013-01-25 15:08:00,
2013-01-25 10:13:00,15.8,11.3,30.18,SE,135,0.0,0.0,82,0.00,RMK 62.6/26.0,,0.00,WUHU21623XXSP,2013-01-25 15:13:00,
2013-01-25 10:18:00,16.0,11.5,30.18,SE,135,0.0,0.0,82,0.00,RMK 62.4/26.0,,0.00,WUHU21623XXSP,2013-01-25 15:18:00,
2013-01-25 10:23:00,16.0,11.5,30.17,SE,135,0.0,0.0,82,0.00,RMK 62.4/26.0,,0.00,WUHU21623XXSP,2013-01-25 15:23:00,
2013-01-25 10:28:00,16.2,11.7,30.18,SE,135,0.0,0.0,82,0.00,RMK 62.6/26.0,,0.00,WUHU21623XXSP,2013-01-25 15:28:00,
2013-01-25 10:33:00,16.2,11.7,30.17,SE,135,0.0,0.0,82,0.00,RMK 63.0/26.0,,0.00,WUHU21623XXSP,2013-01-25 15:33:00,
2013-01-25 10:38:00,16.4,11.9,30.17,SE,135,0.0,0.0,82,0.00,RMK 63.1/26.0,,0.00,WUHU21623XXSP,2013-01-25 15:38:00,
2013-01-25 10:43:00,16.4,11.9,30.16,ESE,112,0.0,0.0,82,0.00,RMK 63.5/26.0,,0.00,WUHU21623XXSP,2013-01-25 15:43:00,
2013-01-25 10:48:00,16.6,12.0,30.16,SE,135,0.0,0.0,82,0.00,RMK 63.7/26.0,,0.00,WUHU21623XXSP,2013-01-25 15:48:00,
2013-01-25 10:53:00,16.7,12.1,30.16,SE,135,0.0,0.0,82,0.00,RMK 63.9/26.0,,0.00,WUHU21623XXSP,2013-01-25 15:53:00,
2013-01-25 10:58:00,16.9,12.3,30.15,SE,135,0.0,0.0,82,0.00,RMK 64.0/25.0,,0.00,WUHU21623XXSP,2013-01-25 15:58:00,
2013-01-25 11:03:00,16.9,12.3,30.15,SE,135,0.0,0.0,82,0.00,RMK 64.0/25.0,,0.00,WUHU21623XXSP,2013-01-25 16:03:00,
2013-01-25 11:08:00,16.9,12.3,30.15,SE,135,0.0,0.0,82,0.00,RMK 64.0/25.0,,0.00,WUHU21623XXSP,2013-01-25 16:08:00,
2013-01-25 11:13:00,17.3,12.7,30.15,SSE,157,0.0,0.0,82,0.00,RMK 64.0/25.0,,0.00,WUHU21623XXSP,2013-01-25 16:13:00,
2013-01-25 11:18:00,17.5,12.9,30.15,SE,135,0.0,0.0,82,0.00,RMK 63.9/25.0,,0.00,WUHU21623XXSP,2013-01-25 16:18:00,
2013-01-25 11:23:00,17.5,12.7,30.14,SE,135,0.0,0.0,81,0.00,RMK 63.7/25.0,,0.00,WUHU21623XXSP,2013-01-25 16:23:00,
2013-01-25 11:28:00,17.6,12.8,30.14,South,180,0.0,0.0,81,0.00,RMK 63.7/25.0,,0.00,WUHU21623XXSP,2013-01-25 16:28:00,
2013-01-25 11:33:00,17.8,13.0,30.14,South,180,0.0,0.0,81,0.00,RMK 63.5/25.0,,0.00,WUHU21623XXSP,2013-01-25 16:33:00,
2013-01-25 11:38:00,18.0,13.1,30.14,SSW,202,0.0,0.0,81,0.00,RMK 63.3/25.0,,0.00,WUHU21623XXSP,2013-01-25 16:38:00,
2013-01-25 11:43:00,18.5,13.6,30.14,SE,135,0.0,0.0,81,0.00,RMK 63.3/25.0,,0.00,WUHU21623XXSP,2013-01-25 16:43:00,
2013-01-25 11:48:00,18.5,13.6,30.13,SE,135,0.0,0.0,81,0.00,RMK 63.1/25.0,,0.00,WUHU21623XXSP,2013-01-25 16:48:00,
2013-01-25 11:53:00,18.5,13.6,30.13,SSE,157,0.0,0.0,81,0.00,RMK 63.1/25.0,,0.00,WUHU21623XXSP,2013-01-25 16:53:00,
2013-01-25 11:58:00,18.5,13.4,30.13,SSE,157,0.0,0.0,80,0.00,RMK 63.0/25.0,,0.00,WUHU21623XXSP,2013-01-25 16:58:00,
2013-01-25 12:03:00,18.4,13.3,30.12,SE,135,0.0,0.0,80,0.00,RMK 63.0/25.0,,0.00,WUHU21623XXSP,2013-01-25 17:03:00,
2013-01-25 12:08:00,18.4,13.3,30.12,SE,135,0.0,0.0,80,0.00,RMK 63.0/25.0,,0.00,WUHU21623XXSP,2013-01-25 17:08:00,
2013-01-25 12:13:00,18.5,13.4,30.11,SE,135,0.0,0.0,80,0.00,RMK 63.0/25.0,,0.00,WUHU21623XXSP,2013-01-25 17:13:00,
2013-01-25 12:18:00,18.5,13.4,30.11,SE,135,0.0,0.0,80,0.00,RMK 63.0/25.0,,0.00,WUHU21623XXSP,2013-01-25 17:18:00,
2013-01-25 12:23:00,18.5,13.4,30.11,SSE,157,0.0,0.0,80,0.00,RMK 62.8/25.0,,0.00,WUHU21623XXSP,2013-01-25 17:23:00,
2013-01-25 12:28:00,18.7,13.6,30.10,South,180,0.0,0.0,80,0.00,RMK 62.6/25.0,,0.00,WUHU21623XXSP,2013-01-25 17:28:00,
2013-01-25 12:33:00,18.7,13.6,30.10,SSW,202,0.0,0.0,80,0.00,RMK 62.6/25.0,,0.00,WUHU21623XXSP,2013-01-25 17:33:00,
2013-01-25 12:38:00,18.9,13.7,30.09,SE,135,0.0,0.0,80,0.00,RMK 62.8/25.0,,0.00,WUHU21623XXSP,2013-01-25 17:38:00,
2013-01-25 12:43:00,19.1,13.9,30.10,South,180,0.0,0.0,80,0.00,RMK 63.1/25.0,,0.00,WUHU21623XXSP,2013-01-25 17:43:00,
2013-01-25 12:48:00,19.1,13.9,30.10,South,180,0.0,0.0,80,0.00,RMK 63.3/25.0,,0.00,WUHU21623XXSP,2013-01-25 17:48:00,
2013-01-25 12:53:00,19.1,13.9,30.09,SSE,157,0.0,0.0,80,0.00,RMK 63.7/25.0,,0.00,WUHU21623XXSP,2013-01-25 17:53:00,
2013-01-25 12:58:00,19.1,13.9,30.08,SSE,157,0.0,0.0,80,0.00,RMK 64.0/25.0,,0.00,WUHU21623XXSP,2013-01-25 17:58:00,
2013-01-25 13:03:00,19.4,14.2,30.07,SSW,202,0.0,0.0,80,0.00,RMK 64.2/25.0,,0.00,WUHU21623XXSP,2013-01-25 18:03:00,
2013-01-25 13:08:00,19.3,14.1,30.07,SSW,202,0.0,0.0,80,0.00,RMK 64.4/25.0,,0.00,WUHU21623XXSP,2013-01-25 18:08:00,
2013-01-25 13:13:00,19.4,14.0,30.07,SSW,202,0.0,0.0,79,0.00,RMK 64.4/25.0,,0.00,WUHU21623XXSP,2013-01-25 18:13:00,
2013-01-25 13:18:00,19.4,14.0,30.07,SSW,202,0.0,0.0,79,0.00,RMK 64.4/25.0,,0.00,WUHU21623XXSP,2013-01-25 18:18:00,
2013-01-25 13:23:00,19.4,13.7,30.07,SW,225,0.0,0.0,78,0.00,RMK 64.4/25.0,,0.00,WUHU21623XXSP,2013-01-25 18:23:00,
2013-01-25 13:28:00,19.4,14.0,30.07,SSW,202,0.0,0.0,79,0.00,RMK 64.4/25.0,,0.00,WUHU21623XXSP,2013-01-25 18:28:00,
2013-01-25 13:33:00,19.8,14.3,30.07,SSW,202,0.0,0.0,79,0.00,RMK 64.2/24.0,,0.00,WUHU21623XXSP,2013-01-25 18:33:00,
2013-01-25 13:38:00,20.0,14.5,30.06,SW,225,0.0,0.0,79,0.00,RMK 64.0/24.0,,0.00,WUHU21623XXSP,2013-01-25 18:38:00,
2013-01-25 13:43:00,20.2,14.5,30.06,SW,225,0.0,0.0,78,0.00,RMK 63.9/25.0,,0.00,WUHU21623XXSP,2013-01-25 18:43:00,
2013-01-25 13:48:00,20.0,14.3,30.07,SSW,202,0.0,0.0,78,0.00,RMK 63.7/25.0,,0.00,WUHU21623XXSP,2013-01-25 18:48:00,
2013-01-25 13:53:00,20.2,14.5,30.05,SSW,202,0.0,0.0,78,0.00,RMK 63.7/25.0,,0.00,WUHU21623XXSP,2013-01-25 18:53:00,
2013-01-25 13:58:00,20.3,14.5,30.05,SSE,157,0.0,0.0,78,0.00,RMK 63.5/25.0,,0.00,WUHU21623XXSP,2013-01-25 18:58:00,
2013-01-25 14:04:00,20.3,14.3,30.05,South,180,0.0,0.0,77,0.00,RMK 63.5/25.0,,0.00,WUHU21623XXSP,2013-01-25 19:04:00,
2013-01-25 14:09:00,20.3,14.3,30.04,South,180,0.0,0.0,77,0.00,RMK 63.3/25.0,,0.00,WUHU21623XXSP,2013-01-25 19:09:00,
2013-01-25 14:14:00,20.3,14.3,30.03,South,180,0.0,0.0,77,0.00,RMK 63.3/25.0,,0.00,WUHU21623XXSP,2013-01-25 19:14:00,
2013-01-25 14:19:00,20.3,14.3,30.03,South,180,0.0,0.0,77,0.00,RMK 63.3/25.0,,0.00,WUHU21623XXSP,2013-01-25 19:19:00,
2013-01-25 14:24:00,20.3,14.3,30.03,South,180,0.0,0.0,77,0.00,RMK 63.3/25.0,,0.00,WUHU21623XXSP,2013-01-25 19:24:00,
2013-01-25 14:29:00,20.3,14.3,30.03,South,180,0.0,0.0,77,0.00,RMK 63.1/25.0,,0.00,WUHU21623XXSP,2013-01-25 19:29:00,
2013-01-25 14:34:00,20.3,14.3,30.02,SSW,202,0.0,0.0,77,0.00,RMK 63.1/25.0,,0.00,WUHU21623XXSP,2013-01-25 19:34:00,
2013-01-25 14:39:00,20.3,14.3,30.03,South,180,0.0,0.0,77,0.00,RMK 63.1/25.0,,0.00,WUHU21623XXSP,2013-01-25 19:39:00,
2013-01-25 14:44:00,20.0,14.0,30.03,South,180,0.0,0.0,77,0.00,RMK 63.0/25.0,,0.00,WUHU21623XXSP,2013-01-25 19:44:00,
2013-01-25 14:49:00,20.0,14.0,30.03,SW,225,0.0,0.0,77,0.00,RMK 63.0/25.0,,0.00,WUHU21623XXSP,2013-01-25 19:49:00,
2013-01-25 14:54:00,20.0,14.0,30.02,SSW,202,0.0,0.0,77,0.00,RMK 63.0/25.0,,0.00,WUHU21623XXSP,2013-01-25 19:54:00,
2013-01-25 14:59:00,20.0,14.0,30.02,SSW,202,0.0,0.0,77,0.00,RMK 63.0/25.0,,0.00,WUHU21623XXSP,2013-01-25 19:59:00,
2013-01-25 15:04:00,20.0,14.0,30.03,SSW,202,0.0,0.0,77,0.00,RMK 63.0/25.0,,0.00,WUHU21623XXSP,2013-01-25 20:04:00,
2013-01-25 15:09:00,20.0,14.0,30.02,SW,225,0.0,0.0,77,0.00,RMK 63.0/25.0,,0.00,WUHU21623XXSP,2013-01-25 20:09:00,
2013-01-25 15:14:00,20.0,14.3,30.02,South,180,0.0,0.0,78,0.00,RMK 63.1/25.0,,0.00,WUHU21623XXSP,2013-01-25 20:14:00,
2013-01-25 15:19:00,20.0,14.3,30.02,SSW,202,0.0,0.0,78,0.00,RMK 63.3/25.0,,0.00,WUHU21623XXSP,2013-01-25 20:19:00,
2013-01-25 15:24:00,20.0,14.3,30.02,South,180,0.0,0.0,78,0.00,RMK 63.7/25.0,,0.00,WUHU21623XXSP,2013-01-25 20:24:00,
2013-01-25 15:29:00,20.0,14.3,30.02,South,180,0.0,0.0,78,0.00,RMK 64.0/25.0,,0.00,WUHU21623XXSP,2013-01-25 20:29:00,
2013-01-25 15:34:00,20.0,14.3,30.01,SW,225,0.0,0.0,78,0.00,RMK 64.2/25.0,,0.00,WUHU21623XXSP,2013-01-25 20:34:00,
2013-01-25 15:39:00,20.0,14.0,30.02,SSW,202,0.0,0.0,77,0.00,RMK 64.4/25.0,,0.00,WUHU21623XXSP,2013-01-25 20:39:00,
2013-01-25 15:44:00,20.0,14.0,30.01,SW,225,0.0,0.0,77,0.00,RMK 64.6/25.0,,0.00,WUHU21623XXSP,2013-01-25 20:44:00,
2013-01-25 15:49:00,19.8,13.8,30.02,South,180,0.0,0.0,77,0.00,RMK 64.8/25.0,,0.00,WUHU21623XXSP,2013-01-25 20:49:00,
2013-01-25 15:54:00,19.6,13.6,30.01,SW,225,0.0,0.0,77,0.00,RMK 64.8/25.0,,0.00,WUHU21623XXSP,2013-01-25 20:54:00,
2013-01-25 15:59:00,19.8,13.8,30.01,SSW,202,0.0,0.0,77,0.00,RMK 64.8/25.0,,0.00,WUHU21623XXSP,2013-01-25 20:59:00,
2013-01-25 16:04:00,19.6,13.6,30.02,SSW,202,0.0,0.0,77,0.00,RMK 64.6/25.0,,0.00,WUHU21623XXSP,2013-01-25 21:04:00,
2013-01-25 16:09:00,19.6,13.6,30.01,SSW,202,0.0,0.0,77,0.00,RMK 64.4/25.0,,0.00,WUHU21623XXSP,2013-01-25 21:09:00,
2013-01-25 16:14:00,19.4,13.4,30.01,South,180,0.0,0.0,77,0.00,RMK 64.4/25.0,,0.00,WUHU21623XXSP,2013-01-25 21:14:00,
2013-01-25 16:19:00,19.4,13.4,30.01,South,180,0.0,0.0,77,0.00,RMK 64.2/25.0,,0.00,WUHU21623XXSP,2013-01-25 21:19:00,
2013-01-25 16:24:00,19.6,13.6,30.01,SSW,202,0.0,0.0,77,0.00,RMK 64.2/25.0,,0.00,WUHU21623XXSP,2013-01-25 21:24:00,
2013-01-25 16:29:00,19.4,13.4,30.01,SSW,202,0.0,0.0,77,0.00,RMK 64.0/25.0,,0.00,WUHU21623XXSP,2013-01-25 21:29:00,
2013-01-25 16:34:00,19.4,13.4,30.01,South,180,0.0,0.0,77,0.00,RMK 64.0/25.0,,0.00,WUHU21623XXSP,2013-01-25 21:34:00,
2013-01-25 16:39:00,19.3,13.3,30.01,SSW,202,0.0,0.0,77,0.00,RMK 64.0/25.0,,0.00,WUHU21623XXSP,2013-01-25 21:39:00,
2013-01-25 16:44:00,19.3,13.3,30.00,SW,225,0.0,0.0,77,0.00,RMK 63.9/25.0,,0.00,WUHU21623XXSP,2013-01-25 21:44:00,
2013-01-25 16:49:00,19.1,13.4,30.01,SW,225,0.0,0.0,78,0.00,RMK 63.9/26.0,,0.00,WUHU21623XXSP,2013-01-25 21:49:00,
2013-01-25 16:54:00,19.1,13.4,30.01,SSW,202,0.0,0.0,78,0.00,RMK 63.9/26.0,,0.00,WUHU21623XXSP,2013-01-25 21:54:00,
2013-01-25 16:59:00,19.1,13.4,30.00,SSW,202,0.0,0.0,78,0.00,RMK 63.9/26.0,,0.00,WUHU21623XXSP,2013-01-25 21:59:00,
2013-01-25 17:04:00,19.1,13.4,30.01,SSW,202,0.0,0.0,78,0.00,RMK 64.0/26.0,,0.00,WUHU21623XXSP,2013-01-25 22:04:00,
2013-01-25 17:09:00,19.1,13.7,30.01,SSW,202,0.0,0.0,79,0.00,RMK 64.0/27.0,,0.00,WUHU21623XXSP,2013-01-25 22:09:00,
2013-01-25 17:14:00,19.1,13.7,30.00,SSW,202,0.0,0.0,79,0.00,RMK 64.2/27.0,,0.00,WUHU21623XXSP,2013-01-25 22:14:00,
2013-01-25 17:20:00,18.9,13.5,30.00,South,180,0.0,0.0,79,0.00,RMK 64.4/27.0,,0.00,WUHU21623XXSP,2013-01-25 22:20:00,
2013-01-25 17:25:00,18.9,13.5,30.00,SSW,202,0.0,0.0,79,0.00,RMK 64.6/27.0,,0.00,WUHU21623XXSP,2013-01-25 22:25:00,
2013-01-25 17:30:00,18.9,13.7,30.00,SSW,202,0.0,0.0,80,0.00,RMK 64.6/27.0,,0.00,WUHU21623XXSP,2013-01-25 22:30:00,
2013-01-25 17:35:00,18.9,13.7,30.00,South,180,0.0,0.0,80,0.00,RMK 64.6/27.0,,0.00,WUHU21623XXSP,2013-01-25 22:35:00,
2013-01-25 17:40:00,18.9,13.7,30.01,South,180,0.0,0.0,80,0.00,RMK 64.4/27.0,,0.00,WUHU21623XXSP,2013-01-25 22:40:00,
2013-01-25 17:45:00,18.7,13.6,30.00,South,180,0.0,0.0,80,0.00,RMK 64.4/27.0,,0.00,WUHU21623XXSP,2013-01-25 22:45:00,
2013-01-25 17:50:00,18.9,13.7,30.01,South,180,0.0,0.0,80,0.00,RMK 64.4/28.0,,0.00,WUHU21623XXSP,2013-01-25 22:50:00,
2013-01-25 17:55:00,18.9,13.7,30.02,South,180,0.0,0.0,80,0.00,RMK 64.2/28.0,,0.00,WUHU21623XXSP,2013-01-25 22:55:00,
2013-01-25 18:00:00,18.7,13.6,30.02,South,180,0.0,0.0,80,0.00,RMK 64.2/28.0,,0.00,WUHU21623XXSP,2013-01-25 23:00:00,
2013-01-25 18:05:00,18.7,13.6,30.02,SSW,202,0.0,0.0,80,0.00,RMK 64.2/28.0,,0.00,WUHU21623XXSP,2013-01-25 23:05:00,
2013-01-25 18:10:00,18.7,13.6,30.02,SSW,202,0.0,0.0,80,0.00,RMK 64.0/29.0,,0.00,WUHU21623XXSP,2013-01-25 23:10:00,
2013-01-25 18:15:00,18.7,13.6,30.02,South,180,0.0,0.0,80,0.00,RMK 64.0/29.0,,0.00,WUHU21623XXSP,2013-01-25 23:15:00,
2013-01-25 18:20:00,18.7,13.8,30.02,SSW,202,0.0,0.0,81,0.00,RMK 64.0/29.0,,0.00,WUHU21623XXSP,2013-01-25 23:20:00,
2013-01-25 18:25:00,18.7,13.8,30.02,SSW,202,0.0,0.0,81,0.00,RMK 64.0/29.0,,0.00,WUHU21623XXSP,2013-01-25 23:25:00,
2013-01-25 18:30:00,18.7,13.8,30.02,SSW,202,0.0,0.0,81,0.00,RMK 63.9/29.0,,0.00,WUHU21623XXSP,2013-01-25 23:30:00,
2013-01-25 18:35:00,18.7,13.8,30.03,SSW,202,0.0,0.0,81,0.00,RMK 63.9/28.0,,0.00,WUHU21623XXSP,2013-01-25 23:35:00,
2013-01-25 18:40:00,18.7,13.8,30.03,SSW,202,0.0,0.0,81,0.00,RMK 63.7/28.0,,0.00,WUHU21623XXSP,2013-01-25 23:40:00,
2013-01-25 18:45:00,18.7,13.8,30.03,SSW,202,0.0,0.0,81,0.00,RMK 63.7/29.0,,0.00,WUHU21623XXSP,2013-01-25 23:45:00,
2013-01-25 18:50:00,18.7,14.1,30.02,SSW,202,0.0,0.0,82,0.00,RMK 63.7/29.0,,0.00,WUHU21623XXSP,2013-01-25 23:50:00,
2013-01-25 18:55:00,18.7,14.1,30.02,SSW,202,0.0,0.0,82,0.00,RMK 63.7/29.0,,0.00,WUHU21623XXSP,2013-01-25 23:55:00,
2013-01-25 19:00:00,18.7,14.1,30.02,SSW,202,0.0,0.0,82,0.00,RMK 63.7/29.0,,0.00,WUHU21623XXSP,2013-01-26 00:00:00,
2013-01-25 19:05:00,18.5,13.9,30.02,SSW,202,0.0,0.0,82,0.00,RMK 63.7/29.0,,0.00,WUHU21623XXSP,2013-01-26 00:05:00,
2013-01-25 19:10:00,18.5,13.9,30.02,SSW,202,0.0,0.0,82,0.00,RMK 63.7/29.0,,0.00,WUHU21623XXSP,2013-01-26 00:10:00,
2013-01-25 19:15:00,18.4,13.8,30.02,SSW,202,0.0,0.0,82,0.00,RMK 63.5/30.0,,0.00,WUHU21623XXSP,2013-01-26 00:15:00,
2013-01-25 19:20:00,18.4,14.1,30.02,SSW,202,0.0,0.0,83,0.00,RMK 63.5/31.0,,0.00,WUHU21623XXSP,2013-01-26 00:20:00,
2013-01-25 19:25:00,18.4,14.1,30.03,SSW,202,0.0,0.0,83,0.00,RMK 63.5/31.0,,0.00,WUHU21623XXSP,2013-01-26 00:25:00,
2013-01-25 19:30:00,18.2,13.9,30.03,SSW,202,0.0,0.0,83,0.00,RMK 63.5/31.0,,0.00,WUHU21623XXSP,2013-01-26 00:30:00,
2013-01-25 19:35:00,18.2,13.9,30.02,SSW,202,0.0,0.0,83,0.00,RMK 63.5/31.0,,0.00,WUHU21623XXSP,2013-01-26 00:35:00,
2013-01-25 19:40:00,18.2,13.9,30.03,SSW,202,0.0,0.0,83,0.00,RMK 63.5/31.0,,0.00,WUHU21623XXSP,2013-01-26 00:40:00,
2013-01-25 19:45:00,18.4,14.1,30.03,SSW,202,0.0,0.0,83,0.00,RMK 63.7/31.0,,0.00,WUHU21623XXSP,2013-01-26 00:45:00,
2013-01-25 19:50:00,18.2,13.9,30.03,SSW,202,0.0,0.0,83,0.00,RMK 63.9/31.0,,0.00,WUHU21623XXSP,2013-01-26 00:50:00,
2013-01-25 19:55:00,18.4,14.1,30.03,SSW,202,0.0,0.0,83,0.00,RMK 64.0/31.0,,0.00,WUHU21623XXSP,2013-01-26 00:55:00,
2013-01-25 20:00:00,18.2,13.9,30.02,SSW,202,0.0,0.0,83,0.00,RMK 64.2/31.0,,0.00,WUHU21623XXSP,2013-01-26 01:00:00,
2013-01-25 20:05:00,18.2,13.9,30.02,SSW,202,0.0,0.0,83,0.00,RMK 64.4/31.0,,0.00,WUHU21623XXSP,2013-01-26 01:05:00,
2013-01-25 20:10:00,18.2,13.9,30.02,SSW,202,0.0,0.0,83,0.00,RMK 64.4/31.0,,0.00,WUHU21623XXSP,2013-01-26 01:10:00,
2013-01-25 20:15:00,18.2,13.9,30.02,SSW,202,0.0,0.0,83,0.00,RMK 64.4/31.0,,0.00,WUHU21623XXSP,2013-01-26 01:15:00,
2013-01-25 20:20:00,18.2,14.2,30.02,SSW,202,0.0,0.0,84,0.00,RMK 64.4/31.0,,0.00,WUHU21623XXSP,2013-01-26 01:20:00,
2013-01-25 20:25:00,18.0,14.0,30.02,SSW,202,0.0,0.0,84,0.00,RMK 64.2/31.0,,0.00,WUHU21623XXSP,2013-01-26 01:25:00,
2013-01-25 20:30:00,18.2,14.2,30.03,South,180,0.0,0.0,84,0.00,RMK 64.2/31.0,,0.00,WUHU21623XXSP,2013-01-26 01:30:00,
2013-01-25 20:35:00,18.2,14.2,30.03,SSW,202,0.0,0.0,84,0.00,RMK 64.2/31.0,,0.00,WUHU21623XXSP,2013-01-26 01:35:00,
2013-01-25 20:41:00,18.2,14.2,30.02,SSW,202,0.0,0.0,84,0.00,RMK 64.0/31.0,,0.00,WUHU21623XXSP,2013-01-26 01:41:00,
2013-01-25 20:46:00,18.0,14.0,30.03,SSW,202,0.0,0.0,84,0.00,RMK 64.0/31.0,,0.00,WUHU21623XXSP,2013-01-26 01:46:00,
2013-01-25 20:51:00,18.0,14.0,30.03,SSW,202,0.0,0.0,84,0.00,RMK 64.0/31.0,,0.00,WUHU21623XXSP,2013-01-26 01:51:00,
2013-01-25 20:56:00,18.0,14.0,30.03,SSW,202,0.0,0.0,84,0.00,RMK 63.9/31.0,,0.00,WUHU21623XXSP,2013-01-26 01:56:00,
2013-01-25 21:01:00,18.0,14.0,30.02,SSW,202,0.0,0.0,84,0.00,RMK 63.9/31.0,,0.00,WUHU21623XXSP,2013-01-26 02:01:00,
2013-01-25 21:06:00,18.2,14.2,30.02,South,180,0.0,0.0,84,0.00,RMK 63.9/31.0,,0.00,WUHU21623XXSP,2013-01-26 02:06:00,
2013-01-25 21:11:00,18.0,14.0,30.02,South,180,0.0,0.0,84,0.00,RMK 63.7/31.0,,0.00,WUHU21623XXSP,2013-01-26 02:11:00,
2013-01-25 21:16:00,18.0,14.0,30.03,South,180,0.0,0.0,84,0.00,RMK 63.7/31.0,,0.00,WUHU21623XXSP,2013-01-26 02:16:00,
2013-01-25 21:21:00,18.0,14.0,30.02,South,180,0.0,0.0,84,0.00,RMK 63.7/32.0,,0.00,WUHU21623XXSP,2013-01-26 02:21:00,
2013-01-25 21:26:00,18.0,14.0,30.02,SSW,202,0.0,0.0,84,0.00,RMK 63.7/32.0,,0.00,WUHU21623XXSP,2013-01-26 02:26:00,
2013-01-25 21:31:00,18.0,14.0,30.02,SW,225,0.0,0.0,84,0.00,RMK 63.7/32.0,,0.00,WUHU21623XXSP,2013-01-26 02:31:00,
2013-01-25 21:36:00,18.0,14.2,30.02,SSW,202,0.0,0.0,85,0.00,RMK 63.7/32.0,,0.00,WUHU21623XXSP,2013-01-26 02:36:00,
2013-01-25 21:41:00,18.2,14.4,30.03,SSW,202,0.0,0.0,85,0.00,RMK 63.7/32.0,,0.00,WUHU21623XXSP,2013-01-26 02:41:00,
2013-01-25 21:46:00,18.2,14.4,30.03,SSW,202,0.0,0.0,85,0.00,RMK 63.7/32.0,,0.00,WUHU21623XXSP,2013-01-26 02:46:00,
2013-01-25 21:51:00,18.2,14.4,30.03,SSW,202,0.0,0.0,85,0.00,RMK 63.5/32.0,,0.00,WUHU21623XXSP,2013-01-26 02:51:00,
2013-01-25 21:56:00,18.4,14.6,30.02,SSW,202,0.0,0.0,85,0.00,RMK 63.5/32.0,,0.00,WUHU21623XXSP,2013-01-26 02:56:00,
2013-01-25 22:01:00,18.5,14.7,30.03,SW,225,0.0,0.0,85,0.00,RMK 63.5/32.0,,0.00,WUHU21623XXSP,2013-01-26 03:01:00,
2013-01-25 22:06:00,18.5,14.7,30.03,SSW,202,0.0,0.0,85,0.00,RMK 63.5/32.0,,0.00,WUHU21623XXSP,2013-01-26 03:06:00,
2013-01-25 22:11:00,18.5,14.7,30.03,SSW,202,0.0,0.0,85,0.00,RMK 63.5/32.0,,0.00,WUHU21623XXSP,2013-01-26 03:11:00,
2013-01-25 22:16:00,18.5,14.7,30.03,SSW,202,0.0,0.0,85,0.00,RMK 63.5/32.0,,0.00,WUHU21623XXSP,2013-01-26 03:16:00,
2013-01-25 22:21:00,18.5,14.7,30.03,SSW,202,0.0,0.0,85,0.00,RMK 63.3/32.0,,0.00,WUHU21623XXSP,2013-01-26 03:21:00,
2013-01-25 22:26:00,18.5,14.7,30.03,SSW,202,0.0,0.0,85,0.00,RMK 63.5/32.0,,0.00,WUHU21623XXSP,2013-01-26 03:26:00,
2013-01-25 22:31:00,18.5,14.7,30.03,SSW,202,0.0,0.0,85,0.00,RMK 63.3/32.0,,0.00,WUHU21623XXSP,2013-01-26 03:31:00,
2013-01-25 22:36:00,18.5,14.7,30.03,SSW,202,0.0,0.0,85,0.00,RMK 63.3/32.0,,0.00,WUHU21623XXSP,2013-01-26 03:36:00,
2013-01-25 22:41:00,18.5,14.7,30.03,SSW,202,0.0,0.0,85,0.00,RMK 63.3/32.0,,0.00,WUHU21623XXSP,2013-01-26 03:41:00,
2013-01-25 22:46:00,18.5,14.7,30.02,SSW,202,0.0,0.0,85,0.00,RMK 63.3/32.0,,0.00,WUHU21623XXSP,2013-01-26 03:46:00,
2013-01-25 22:51:00,18.5,14.7,30.03,SW,225,0.0,0.0,85,0.00,RMK 63.3/32.0,,0.00,WUHU21623XXSP,2013-01-26 03:51:00,
2013-01-25 22:56:00,18.5,14.7,30.02,SW,225,0.0,0.0,85,0.00,RMK 63.3/32.0,,0.00,WUHU21623XXSP,2013-01-26 03:56:00,
2013-01-25 23:01:00,18.5,14.7,30.02,SW,225,0.0,0.0,85,0.00,RMK 63.3/32.0,,0.00,WUHU21623XXSP,2013-01-26 04:01:00,
2013-01-25 23:06:00,18.7,14.9,30.03,SW,225,0.0,0.0,85,0.00,RMK 63.3/32.0,,0.00,WUHU21623XXSP,2013-01-26 04:06:00,
2013-01-25 23:11:00,18.7,14.9,30.03,SW,225,0.0,0.0,85,0.00,RMK 63.3/32.0,,0.00,WUHU21623XXSP,2013-01-26 04:11:00,
2013-01-25 23:16:00,18.7,14.9,30.03,SW,225,0.0,0.0,85,0.00,RMK 63.5/32.0,,0.00,WUHU21623XXSP,2013-01-26 04:16:00,
2013-01-25 23:21:00,18.7,14.9,30.03,SW,225,0.0,0.0,85,0.00,RMK 64.0/32.0,,0.00,WUHU21623XXSP,2013-01-26 04:21:00,
2013-01-25 23:26:00,18.7,14.9,30.03,SW,225,0.0,0.0,85,0.00,RMK 64.4/32.0,,0.00,WUHU21623XXSP,2013-01-26 04:26:00,
2013-01-25 23:31:00,18.7,14.9,30.03,SW,225,0.0,0.0,85,0.00,RMK 64.8/31.0,,0.00,WUHU21623XXSP,2013-01-26 04:31:00,
2013-01-25 23:36:00,18.7,14.9,30.03,SW,225,0.0,0.0,85,0.00,RMK 65.5/31.0,,0.00,WUHU21623XXSP,2013-01-26 04:36:00,
2013-01-25 23:41:00,18.7,14.9,30.03,SW,225,0.0,0.0,85,0.00,RMK 65.8/31.0,,0.00,WUHU21623XXSP,2013-01-26 04:41:00,
2013-01-25 23:46:00,18.7,14.9,30.03,SW,225,0.0,0.0,85,0.00,RMK 66.4/30.0,,0.00,WUHU21623XXSP,2013-01-26 04:46:00,
2013-01-25 23:51:00,18.7,14.9,30.03,SW,225,0.0,0.0,85,0.00,RMK 66.9/30.0,,0.00,WUHU21623XXSP,2013-01-26 04:51:00,
2013-01-25 23:56:00,18.7,14.9,30.03,SW,225,0.0,0.0,85,0.00,RMK 67.3/30.0,,0.00,WUHU21623XXSP,2013-01-26 04:56:00,